Location: *
(46.1333°S, 161.2167°W)
Time: 04:28:32
(UTC+00:00)

Helios 1A Rocket - Pass Details

Date: 15 July 2020
Orbit: 562 x 587 km, 98.3° (Epoch: 10 August)

Event Time Altitude Azimuth Distance (km) Brightness Sun altitude
Rises 16:46:46 0° 7° (N) 2,768 6.7 -15.9°
Reaches altitude 10° 16:48:54 10° 3° (N) 1,883 5.8 -15.6°
Maximum altitude 16:52:57 61° 282° (WNW) 665 2.9 -14.9°
Drops below altitude 10° 16:57:05 10° 200° (SSW) 1,926 5.2 -14.2°
Enters shadow 16:57:28 - 200° (SSW) 2,080 5.4 -14.1°
